Glen Aubrey, NY

3:59 AM EDT on September 28, 2016 (GMT -0400)
Binghamton Regional-Link

Weather History for KBGM - October, 2012

Change the Weather History Date:

Sunday, October 14, 2012

  Actual Average Record
Temperature  
Mean Temperature 54 °F 49 °F  
Max Temperature 66 °F 58 °F 80 °F (1954)
Min Temperature 42 °F 41 °F 24 °F (1993)
Degree Days  
Heating Degree Days 11 16  
Month to date heating degree days 209 194  
Since 1 July heating degree days 423 451  
Cooling Degree Days 0 0  
Month to date cooling degree days 1 0  
Year to date cooling degree days 548 379  
Growing Degree Days 4 (Base 50)    
Moisture  
Dew Point 45 °F    
Average Humidity 73    
Maximum Humidity 89    
Minimum Humidity 56    
Precipitation  
Precipitation 0.13 in 0.11 in 2.05 in (1995)
Month to date precipitation 0.79 1.56  
Year to date precipitation 30.09 31.40  
Snow  
Snow 0.00 in 0.00 in 0.20 in (1980)
Month to date snowfall T 0.1  
Since 1 July snowfall T 0.1  
Since 1 September snowfall T 0.1  
Snow Depth 0.00 in    
Sea Level Pressure  
Sea Level Pressure 30.00 in    
Wind  
Wind Speed 10 mph (South)    
Max Wind Speed 17 mph    
Max Gust Speed 26 mph    
Visibility 10 miles    
Events Rain    
T = Trace of Precipitation, MM = Missing Value Source: NWS Daily Summary

Daily Weather History Graph

Daily Weather History Graph

Search for Another Location

Airport or City:

Trip Planner

Search our weather history database for the weather conditions in past years. The results will help you decide how hot, cold, wet, or windy it might be!

Date:

Astronomy

Oct. 14, 2012 Rise Set
Actual Time 7:15 AM EDT 6:22 PM EDT
Civil Twilight 6:47 AM EDT 6:51 PM EDT
Nautical Twilight 6:15 AM EDT 7:23 PM EDT
Astronomical Twilight 5:42 AM EDT 7:55 PM EDT
Moon 6:12 AM EDT (10/14) 5:41 PM EDT (10/14)
Length of Visible Light 12h 03m
Length of Day
11h 06m
Waning Crescent, 1% of the Moon is Illuminated
Oct 14
Waning Crescent
Oct 15
New
Oct 21
First Quarter
Oct 29
Full
Nov 6
Last Quarter

Hourly Weather History & Observations

Time (EDT) Temp. Windchill Dew Point Humidity Pressure Visibility Wind Dir Wind Speed Gust Speed Precip Events Conditions
12:53 AM 42.8 °F 37.0 °F 35.6 °F 76% 30.10 in 10.0 mi South 10.4 mph 18.4 mph N/A Rain Light Rain
1:53 AM 42.1 °F 36.1 °F 37.0 °F 82% 30.10 in 10.0 mi South 10.4 mph - 0.03 in Rain Light Rain
2:53 AM 43.0 °F 36.0 °F 37.0 °F 80% 30.08 in 10.0 mi South 13.8 mph 20.7 mph 0.01 in   Overcast
3:53 AM 44.1 °F 39.0 °F 39.0 °F 82% 30.08 in 5.0 mi SSW 9.2 mph - 0.03 in Rain Light Rain
4:53 AM 44.1 °F 39.0 °F 39.0 °F 82% 30.07 in 10.0 mi South 9.2 mph - 0.00 in Rain Light Rain
5:53 AM 45.0 °F 40.6 °F 39.9 °F 82% 30.07 in 10.0 mi South 8.1 mph - 0.01 in Rain Light Rain
6:53 AM 45.0 °F 39.7 °F 41.0 °F 86% 30.07 in 10.0 mi SSW 10.4 mph - 0.03 in Rain Light Rain
7:53 AM 46.0 °F 40.6 °F 42.1 °F 86% 30.07 in 10.0 mi SSW 11.5 mph - 0.01 in Rain Light Rain
8:53 AM 46.9 °F - 43.0 °F 86% 30.08 in 10.0 mi SSW 8.1 mph - 0.01 in   Mostly Cloudy
9:53 AM 48.9 °F - 43.0 °F 80% 30.09 in 10.0 mi SSW 8.1 mph - N/A   Overcast
10:53 AM 52.0 °F - 45.0 °F 77% 30.07 in 10.0 mi South 8.1 mph - N/A   Overcast
11:53 AM 57.0 °F - 46.9 °F 69% 30.05 in 10.0 mi South 10.4 mph - N/A   Mostly Cloudy
12:53 PM 62.1 °F - 48.9 °F 62% 30.02 in 10.0 mi SSW 10.4 mph 18.4 mph N/A   Clear
1:53 PM 64.0 °F - 50.0 °F 60% 29.99 in 10.0 mi South 9.2 mph - N/A   Clear
2:53 PM 66.0 °F - 51.1 °F 59% 29.96 in 10.0 mi South 13.8 mph 19.6 mph N/A   Clear
3:53 PM 64.4 °F - 50.0 °F 59% 29.92 in 10.0 mi South 11.5 mph 21.9 mph N/A   Clear
4:53 PM 66.0 °F - 50.0 °F 56% 29.91 in 10.0 mi South 10.4 mph 17.3 mph N/A   Clear
5:53 PM 64.0 °F - 48.9 °F 58% 29.91 in 10.0 mi South 11.5 mph 21.9 mph N/A   Clear
6:53 PM 61.0 °F - 48.0 °F 62% 29.89 in 10.0 mi South 10.4 mph - N/A   Clear
7:53 PM 60.1 °F - 48.0 °F 64% 29.89 in 10.0 mi South 12.7 mph 24.2 mph N/A   Clear
8:53 PM 59.0 °F - 48.0 °F 67% 29.89 in 10.0 mi South 9.2 mph 19.6 mph N/A   Clear
9:53 PM 59.0 °F - 48.9 °F 69% 29.87 in 10.0 mi South 11.5 mph 19.6 mph N/A   Clear
10:53 PM 57.9 °F - 48.9 °F 72% 29.84 in 10.0 mi South 9.2 mph 17.3 mph N/A   Clear
11:53 PM 59.0 °F - 48.0 °F 67% 29.81 in 10.0 mi South 11.5 mph 20.7 mph N/A   Clear